Content
SEND FEEDBACK

Daily
Averages
Monthly
Summary
United States of America

EARTH CITY, MISSOURI


Home > North America > United States > Missouri
Elevation: 476 feet     Latitude: 38 46N     Longitude: 090 30W

WEATHER
 
SELECT A DAY
Number of Records: 203,439;   Date Range: 1/1/95 - 7/29/14
 
SHARE

PRINT THIS DATA

[ ← Previous Day ]
WEATHER ALMANAC - APRIL 19, 2013
[ Next Day → ]
[ °C ]   °F
Weather ElementAverageHighLow
Temperature44.2 °F53.1 °F (3:51 pm)39 °F (7:51 am)
Dewpoint26.1 °F30 °F (2:51 am)24.1 °F (4:51 pm)
Humidity50.2 %65 % (2:51 am)34 % (3:51 pm)
Barometer29.91 in30.09 in (11:51 pm)29.77 in (12:51 am)
Wind Speed17.8 mph26.5 mph (3:51 pm)
Wind Gust35.7 mph (7:51 am)
Weather ElementAverage
Visibility10 mi
Wind DirectionWNW (277.5 °)

Weather ElementTotal
Precipitation---
Heating Degree Days19 (Base 65)
Averaged from 24 records on April 19, 2013
WEATHER CONDITIONS BREAKOUT
WIND DIRECTION BREAKOUT
WEATHER BY HOUR - APRIL 19, 2013
[ °C ]   °F
Local TimeTemperatureDewpointHumidityBarometerVisibilityWind DirectionWind SpeedGust SpeedPrecipitationEventsConditions
12:51 AM41.0 °F28.9 °F62 %29.77 in10.0 miWNW (290°)18.4 mph29.9 mphOvercast
1:51 AM41.0 °F28.9 °F62 %29.77 in10.0 miWest (280°)16.1 mph26.5 mphOvercast
2:51 AM41.0 °F30.0 °F65 %29.77 in10.0 miWNW (290°)21.9 mph27.6 mphOvercast
3:51 AM41.0 °F28.0 °F60 %29.78 in10.0 miWest (280°)25.3 mph29.9 mphOvercast
4:51 AM39.9 °F27.0 °F60 %29.79 in10.0 miWest (280°)17.3 mph25.3 mphOvercast
5:51 AM39.9 °F26.1 °F58 %29.81 in10.0 miWest (270°)20.7 mphOvercast
6:51 AM39.9 °F25.0 °F55 %29.83 in10.0 miWest (280°)19.6 mph32.2 mphOvercast
7:51 AM39.0 °F25.0 °F57 %29.88 in10.0 miWest (270°)20.7 mph35.7 mphOvercast
8:51 AM39.0 °F26.1 °F60 %29.88 in10.0 miWest (280°)18.4 mph32.2 mph0.00 in
9:51 AM39.9 °F26.1 °F58 %29.89 in10.0 miWest (260°)17.3 mph23.0 mph0.00 inOvercast
10:51 AM41.0 °F26.1 °F55 %29.90 in10.0 miWest (260°)23.0 mph33.4 mphOvercast
11:51 AM43.0 °F26.1 °F51 %29.91 in10.0 miWest (270°)19.6 mph29.9 mphMostly Cloudy
12:51 PM46.0 °F27.0 °F47 %29.90 in10.0 miWest (260°)25.3 mph33.4 mphMostly Cloudy
1:51 PM50.0 °F28.0 °F43 %29.90 in10.0 miWest (260°)18.4 mph26.5 mphMostly Cloudy
2:51 PM52.0 °F26.1 °F37 %29.90 in10.0 miWest (260°)25.3 mph31.1 mphMostly Cloudy
3:51 PM53.1 °F25.0 °F34 %29.91 in10.0 miWest (280°)26.5 mph33.4 mphMostly Cloudy
4:51 PM51.1 °F24.1 °F35 %29.93 in10.0 miWNW (290°)15.0 mph28.8 mphMostly Cloudy
5:51 PM51.1 °F24.1 °F35 %29.96 in10.0 miWNW (290°)17.3 mph26.5 mphMostly Cloudy
6:51 PM50.0 °F25.0 °F38 %29.99 in10.0 miWNW (300°)15.0 mph29.9 mphScattered Clouds
7:51 PM46.9 °F24.1 °F41 %30.02 in10.0 miWNW (290°)13.8 mph21.9 mphScattered Clouds
8:51 PM46.0 °F24.1 °F42 %30.04 in10.0 miWNW (290°)10.4 mphPartly Cloudy
9:51 PM44.1 °F25.0 °F47 %30.07 in10.0 miWest (280°)5.8 mphClear
10:51 PM43.0 °F26.1 °F51 %30.08 in10.0 miWest (280°)8.1 mphClear
11:51 PM42.1 °F25.0 °F51 %30.09 in10.0 miWest (270°)6.9 mphClear
Hourly data recorded from KSTL, located miles away from Earth City, Missouri







STORIES FROM OUR PARTNERS